Regional Weather Roundup
Issued by NWS Cleveland, OH

Home | Current Version | Previous Version | Graphics & Text | Print | Product List | Glossary On
Versions: 1 2 3 4 5 6 7 8 9 10 11 12 13 14 15 16 17 18 19 20 21 22 23 24 25 26 27 28 29 30 31 32 33 34 35 36 37 38 39 40 41 42 43 44 45 46 47 48 49 50
000
ASUS41 KCLE 031200
RWRCLE
OHIO REGIONAL WEATHER ROUNDUP
NATIONAL WEATHER SERVICE WILMINGTON, OH
700 AM EST TUE MAR 03 2015

NOTE: "FAIR" INDICATES FEW OR NO CLOUDS BELOW 12,000 FEET WITH NO
SIGNIFICANT WEATHER AND/OR OBSTRUCTIONS TO VISIBILITY.

OHZ001>008-015>018-024>027-034-035-043-044-031300-
   NORTHWEST OHIO

CITY           SKY/WX    TMP DP  RH WIND       PRES   REMARKS
DEFIANCE       MIX PCPN  24  14  65 SE7       30.15S WCI  16
FINDLAY        CLOUDY    25  14  63 SE12      30.10F WCI  14
TOLEDO EXPRESS CLOUDY    22  13  68 VRB3      30.14F
TOLEDO EXEC    CLOUDY    22  14  71 E8        30.14F WCI  12
LIMA           MIX PCPN  26  15  63 S7        30.14R WCI  18
$$

OHZ009>014-019>023-028>033-038-089-031300-
   NORTHEAST OHIO

CITY           SKY/WX    TMP DP  RH WIND       PRES   REMARKS
CLE-HOPKINS    CLOUDY    24  12  60 SE13      30.21F WCI  12
CLE-LAKEFRONT  CLOUDY    25  12  58 SE12      30.19F WCI  14
CUY CO. ARPT   CLOUDY    25  12  58 S12       30.20  WCI  14
LORAIN-ELYRIA  CLOUDY    23  13  65 S8        30.19F WCI  14
ASHTABULA      CLOUDY    19   9  65 SE9       30.22F WCI   8
AKRON-CANTON   CLOUDY    23  12  62 SE10      30.19F WCI  12
WOOSTER        NOT AVBL
MANSFIELD      CLOUDY    22  13  68 SE14      30.13F WCI   9
YOUNGSTOWN     CLOUDY    20  10  65 SE13      30.21F WCI   7
$$

OHZ042-051>053-060>062-070>072-077>081-031300-
  SOUTHWEST OHIO

CITY           SKY/WX    TMP DP  RH WIND       PRES   REMARKS
CINC-COVINGTON CLOUDY    29  19  66 S9        30.09F WCI  20
CINC-LUNKEN    MOCLDY    29  19  66 CALM      30.11F
HAMILTON       MOCLDY    29  18  63 E3        30.12F
DAYTON         NOT AVBL
WRIGHT-PAT AFB NOT AVBL
DAYTON GENERAL MOCLDY    27  17  66 SE8       30.09F WCI  19
WILMINGTON     MOCLDY    25  16  68 SE16      30.07F WCI  12
$$

OHZ036-037-039>041-045>050-054>059-063>069-073>076-082>088-031300-
  CENTRAL AND SOUTHEAST OHIO

CITY           SKY/WX    TMP DP  RH WIND       PRES   REMARKS
COLUMBUS       CLOUDY    26  16  65 E12       30.11F WCI  16
OSU AIRPORT    MIX PCPN  27  15  61 SE10      30.11F WCI  17
BOLTON FIELD   NOT AVBL
RICKENBACK AFB NOT AVBL
NEWARK         CLOUDY    25  16  68 E6        30.15F WCI  18
MARION         CLOUDY    24  13  62 SE14      30.11F WCI  12
LANCASTER      CLOUDY    27  17  66 SE10      30.14F WCI  17
ZANESVILLE     CLOUDY    24  15  68 E6        30.19F WCI  17
NEW PHILLY     CLOUDY    25  14  63 SE5       30.23F WCI  19
$$



USA.gov is the U.S. government's official web portal to all federal, state and local government web resources and services.